Regional Weather Roundup
Issued by NWS Sioux Falls, SD

Home | Current Version | Previous Version | Text Only | Print | Product List | Glossary On
Versions: 1 2 3 4 5 6 7 8 9 10 11 12 13 14 15 16 17 18 19 20 21 22 23 24 25 26 27 28 29 30 31 32 33 34 35 36 37 38 39 40 41 42 43 44 45 46 47 48 49 50
000
ASUS43 KFSD 011210
RWRFSD

WEATHER ROUNDUP FOR SE SOUTH DAKOTA/SW MINNESOTA/NW IOWA
NATIONAL WEATHER SERVICE SIOUX FALLS SD
700 AM CDT WED APR 01 2015

NOTE: "FAIR" INDICATES FEW OR NO CLOUDS BELOW 12,000 FEET WITH NO
SIGNIFICANT WEATHER AND OR OBSTRUCTIONS TO VISIBILITY.


SDZ038>040-050-052>070-011300-
SOUTHEAST SOUTH DAKOTA

CITY           SKY/WX    TMP DP  RH WIND       PRES   REMARKS
BROOKINGS      CLEAR     55  34  44 S21G30    29.62F
CHAMBERLAIN    CLOUDY    60  32  34 S17       29.48F
6HR MIN TEMP:  58; 6HR MAX TEMP:  63;

HURON          PTCLDY    53  33  46 S15G23    29.50F
6HR MIN TEMP:  52; 6HR MAX TEMP:  57;

MADISON        FAIR      54  32  43 S22G33    29.61F
MITCHELL       PTCLDY    55  34  45 S12       29.56F
6HR MIN TEMP:  54; 6HR MAX TEMP:  59;

SIOUX FALLS    PTCLDY    56  32  40 S18       29.65F
6HR MIN TEMP:  55; 6HR MAX TEMP:  60;

WINNER         FAIR      62  29  28 S22G35    29.49F
YANKTON        CLEAR     59  36  41 S18G30    29.65F
$$

MNZ071-072-080-081-089-090-097-098-011300-
SOUTHWEST MINNESOTA

CITY           SKY/WX    TMP DP  RH WIND       PRES   REMARKS
FAIRMONT       CLEAR     41  27  56 S10       29.75S
JACKSON        CLEAR     52  32  46 S15       29.74S
LUVERNE        CLEAR     52  32  46 S16       29.69F
MARSHALL       FAIR      59  30  33 SW35G43   29.63F
6HR MIN TEMP:  43; 6HR MAX TEMP:  59;

MONTEVIDEO     PTCLDY    46  34  61 S8        29.63F
PIPESTONE      CLEAR     52  30  43 S21       29.66F
REDWOOD FALLS  PTCLDY    43  33  68 SE9       29.68S
TRACY          CLEAR     60  32  35 S21G35    29.66F
WINDOM         CLEAR     54  30  40 S15G22    29.71S
WORTHINGTON    CLEAR     54  30  40 S23G29    29.72F
$$

IAZ001>003-012>014-020>022-031-032-NEZ013-014-SDZ071-011300-
NORTHWEST IOWA

CITY           SKY/WX    TMP DP  RH WIND       PRES   REMARKS
CHEROKEE       CLEAR     53  33  46 S13G20    29.75F
DENISON        MOCLDY    54  32  43 S16G23    29.77S
ESTHERVILLE    CLEAR     40  31  70 S10       29.75F
LE MARS        CLEAR     55  32  41 S16G23    29.73S
ORANGE CITY    CLEAR     54  30  40 S15       29.73F
SHELDON        MOCLDY    48  32  53 S15       29.71F
SIOUX CITY     FAIR      51  32  48 SE12      29.75S
6HR MIN TEMP:  46; 6HR MAX TEMP:  59;

SPENCER        CLEAR     56  33  42 S21G31    29.74F
6HR MIN TEMP:  45; 6HR MAX TEMP:  56;

STORM LAKE     CLEAR     52  32  46 S15       29.78F
$$

ABBREVIATIONS USED IN REMARKS
   TC - TEMPERATURE IN CELSIUS
  WCI - WIND CHILL INDEX
   HX - HEAT INDEX
  VSB - VISIBILITY




USA.gov is the U.S. government's official web portal to all federal, state and local government web resources and services.